Погода Большой Улуй

Погода Большой Улуй : погода сейчас, прогноз погоды и архив. Всё, что Вы хотите узнать о погоде Большой Улуй!

Поиск расширенной информации на нашем сайте:

Другие новости

Новости СМИ2

Главная страница сайта

Новости сайта

03.07.2017

Напоминаем, что на нашем специализированном сайте Метеоцентр.Азия вы можете получить высокодетализированные автоматические прогнозы погоды по пунктам России, СНГ и мира в авиационном формате (включающие направление и скорость ветра, видимость, явления погоды, количество и форму облачности, нижнюю и верхнюю границу облачности).


Погода Большой Улуй - сегодня

Время (UTC), дата Ветер
(°,м/с) 
Видим.   Явления Облачность Т
(°С)
Тd
(°С)
f(%) Тe
(°С)
Pmin
(гПа)
dP
(гПа)
Po
(мм)
O2
(г/м3)
Тmin Tmax R s Состояние
почвы
15 09.12.17 070 (В) н/о    ясно 
-13.3 -14.2 93 -15  1029.7  -1.3  749  319           
18 09.12.17 170 (Ю) н/о    ясно 
-15.7 -16.8 91 -16  1029.8  -0.3  749  322           
21 09.12.17 090 (В) н/о    ясно 
-17 -18.3 90 -19  1029  -0.9  748  323           
00 10.12.17 090 (В) н/о    ясно 
-17.2 -18.6 89 -17  1029.4  0.4  749  323  -17.3      13  равномерный
сухой снег
100% 
03 10.12.17 180 (Ю) 20000 м    8/0 средняя, верхняя 
[Ac trans|Ci fib]
-13.2 -14.3 91 -13  1028.4  -0.5  748  318  -17.9         
06 10.12.17 160 (Ю) 20000 м    6/0 верхняя 
[Ci fib]
-9.8 -11.2 89 -12  1028.2  0.1  748  314           
09 10.12.17 110 (В) 20000 м    8/0 верхняя 
[Ci fib]
-9.9 -11.5 88 -12  1028.2  748  314           
12 10.12.17 110 (В) н/о    4/0 верхняя 
[Ci fib]
-11.2 -12.2 92 -15  1026.7  -1.5  747  315    -7.8       
15 10.12.17 130 (ЮВ) н/о    3/0 верхняя 
[Ci fib]
-13.5 -14.5 92 -16  1027.7  0.8  748  318           
18 10.12.17 тихо ()   н/о    ясно 
-16.6 -17.9 90 -17  1028.2  0.1  748  322           
21 10.12.17 150 (ЮВ) н/о    ясно 
-15.4 -16.7 90 -19  1028.8  0.6  748  321           
00 11.12.17 190 (Ю) н/о    10/0 средняя 
[As op]
-14.6 -16 89 -17  1029.6  0.9  749  320  -18.6      13  равномерный
сухой снег
100% 
03 11.12.17 170 (Ю) 4000 м  слаб. снег  10/0 средняя 
[As op]
-11.3 -12 95 -13  1030.3  1.1  750  316           
06 11.12.17 170 (Ю) 4000 м  слаб. снег  10/0 средняя 
[As op]
-8.1 -8.8 95 -8  1031.3  1.3  751  313           
09 11.12.17 160 (Ю) 20000 м  в посл. час снег  10/0 средняя 
[As op]
-7.8 -8.4 95 -8  1031.6  0.3  751  312           
12 11.12.17 150 (ЮВ) н/о  {снег}  10/0 средняя 
[As op]
-8.9 -9.5 95 -9  1031.5  -0.3  751  314    -6.9  0.0     
15 11.12.17 180 (Ю) н/о    10/0 средняя 
[Ac As]
-9.1 -9.6 96 -9  1030.3  -1.1  750  314           
18 11.12.17 150 (ЮВ) н/о    3/0 верхняя 
[Ci fib]
-11.1 -11.8 95 -11  1029.9  -0.6  750  316           
21 11.12.17 тихо ()   н/о  дымка  10/0 верхняя 
[Cs]
-12.9 -13.8 93 -13  1029.2  -0.9  749  318           
00 12.12.17 тихо ()   н/о  слаб. снег  10/0 средняя 
[As op]
-10.6 -11.3 95 -11  1028.6  -0.3  749  315  -13.3    0.0  14  равномерный
сухой снег
100% 
03 12.12.17 тихо ()   4000 м  дымка{снег}  10/0 средняя 
[As op]
-11.9 -12.8 93 -12  1028.7  -0.1  749  317           
06 12.12.17 250 (З) 4000 м  дымка{снег}  10/0 средняя 
[As op]
-10.5 -11.3 94 -10  1028.6  0.1  749  315           
09 12.12.17 230 (ЮЗ) 4000 м  дымка  10/0 средняя 
[As trans]
-10.6 -11.4 94 -10  1028.7  0.1  749  315           
12 12.12.17 250 (З) н/о    10/0 средняя 
[As trans]
-11.6 -12.4 94 -14  1029.9  0.1  750  317    -9.5  0.2     
15 12.12.17 250 (З) н/о    10/0 средняя 
[Ac As]
-12.2 -13.1 93 -14  1031.8  1.7  751  318           
Время (UTC), дата Ветер
(°,м/с) 
Видим.   Явления Облачность Т
(°С)
Тd
(°С)
f(%) Тe
(°С)
Pmin
(гПа)
dP
(гПа)
Po
(мм)
O2
(г/м3)
Тmin Tmax R s Состояние
почвы

Для получения пояснительной информации подведите курсор к названию столбца.

ПОГОДА Большой Улуй - архив

Всё, что Вы хотите узнать о погоде Большой Улуй - удобно и подробно!

Выберите нужную дату (начиная с 1 января 2015* года) и нажмите кнопку "Найти".
Будут отображены архивные сводки погоды по пункту Большой Улуй, начиная с указанной даты.


Отображать данные в формате CSV (для использования в таблицах Excel)


Внимание! Наш архив погоды предназначен исключительно для личного некоммерческого использования в познавательных целях. Если Вам необходимы официальные справки о состоянии погоды (для производственных, юридических, коммерческих и т.п. целей), обращайтесь в органы Росгидромета.

*Примечание: данная дата относится к архиву по метеостанциям СССР (Россия, СНГ, Балтия).
Архив по метеостанциям Зарубежной Европы и Азии (кроме Китая) хранится 10 дней, по другим регионам земного шара (Китай, Африка, Америка, Австралия, Океания) - 1 день.

Большой Улуй - район местоположения метеостанции


Название, широта, долгота, высота метеостанции:
Большой Улуй 56.6°ш. 90.6°д. 231 м над ур. моря [Российская Федерация]

Дополнительная информация

В oтличие oт бoльшинства пoгoдных сайтoв мы публикуем пoдрoбную метеoинфoрмацию в детальнoм прoфессиoнальнoм фoрмате.

Характеристики температуры и влажнoсти вoздуха измеряются на высoте 2 м в тени вдали oт зданий и деревьев.
Скoрoсть ветра измеряется на высoте 10 м (на урoвне рoста челoвека скoрoсть ветра ниже в 1.5-2 раза). Если метеoстанция нахoдится в гoрoде или в лесу, тo скoрoсть ветра занижена на 2-4 м/с пo сравнению с oткрытым местoм. Скoрoсть ветра над акватoриями крупных рек и oзёр, а также на вершинах хoлмoв на 2-5 м/с выше, чем в oбычных услoвиях.
Атмoсфернoе давление в разных тoчках местнoсти мoжет значительнo oтличаться oт давления на метеoстанции, в зависимoсти oт услoвий рельефа (при пoдъёме на 10 м давление пoнижается примернo на 1 мм рт.ст.).